Location: Newark
(38.2561°N, 85.7581°W)
Time: 10:37:11
(UTC+00:00)

N. Korean satellite - Visible Passes

Search period start: 12 November 2019 00:00
Search period end: 22 November 2019 00:00
Orbit: 456 x 506 km, 97.2° (Epoch: 11 November)

Date Brightness Start Highest point End Pass type
(mag) Time Alt. Az. Time Alt. Az. Time Alt. Az.
12 Nov 9.7 10:46:16 10° NE 10:48:56 19° E 10:51:34 10° SE visible
14 Nov 10.4 00:03:21 10° WSW 00:04:05 10° W 00:04:48 10° W visible
14 Nov 7.0 11:28:00 10° NNE 11:31:42 69° E 11:35:22 10° S visible
14 Nov 9.4 23:35:40 10° SSW 23:38:31 22° W 23:41:25 10° NW visible
15 Nov 8.7 11:02:58 10° NNE 11:06:17 30° E 11:09:33 10° SSE visible
15 Nov 7.8 23:09:34 10° S 23:13:02 48° W 23:16:36 10° NNW visible
16 Nov 10.0 10:38:36 10° ENE 10:40:45 15° E 10:42:54 10° SE visible
17 Nov 6.6 11:45:15 10° N 11:48:56 67° WNW 11:52:34 10° SSW visible
17 Nov 10.0 23:54:00 10° WSW 23:55:52 14° W 23:57:45 10° WNW visible
18 Nov 7.5 11:19:56 10° NNE 11:23:34 52° E 11:27:07 10° S visible
18 Nov 8.9 23:27:10 10° SSW 23:30:19 28° W 23:33:32 10° NW visible
19 Nov 9.2 10:55:02 10° NE 10:58:06 24° E 11:01:05 10° SSE visible
19 Nov 7.2 23:01:17 10° S 23:04:52 63° W 23:08:32 10° NNW visible
20 Nov 10.2 10:31:12 10° ENE 10:32:32 12° E 10:33:51 10° ESE visible
21 Nov 6.6 11:37:04 10° N 11:40:46 87° WNW 11:44:24 10° SSW visible
21 Nov 9.8 23:45:09 10° SW 23:47:37 17° W 23:50:07 10° NW visible
